Weather Roundup
Issued by NWS

Home | Current Version | Previous Version | Text Only | Print | Product List | Glossary On
Versions: 1 2 3 4 5 6 7 8 9 10 11 12 13 14 15 16 17 18 19 20 21 22 23 24 25 26 27 28 29 30 31 32 33 34 35 36 37 38 39 40 41 42 43 44 45 46 47 48 49 50
000
NZUS93 KARX 240859
HRRWXR

CURRENT HOURLY OBSERVATIONS ACROSS
MUCH OF THE UPPER MISSISSIPPI VALLEY
NATIONAL WEATHER SERVICE LA CROSSE WI
300 AM CST WED DEC 24 2014


...SOUTHEAST MINNESOTA...


CITY           SKY/WX    TMP DP  RH WIND       PRES   REMARKS
ROCHESTER      CLOUDY    33  30  88 N17       29.76S WCI  22
ROCHESTER/MAYO CLOUDY    33  31  94 NW9       29.77S WCI  25
WINONA         CLOUDY    36  32  87 NW7       29.76S WCI  30
AUSTIN         CLOUDY    34  30  86 N12G17    29.77S WCI  25
ALBERT LEA     CLOUDY    34  34 100 N12       29.78S WCI  25
DODGE CENTER   CLOUDY    34  32  93 N12       29.77R WCI  25
PRESTON        CLOUDY    32  30  91 N14       29.75R WCI  22
OWATONNA       CLOUDY    34  30  86 NW9       29.80R WCI  26
FARIBAULT      CLOUDY    34  32  93 NW7       29.80S WCI  28
$$

...ELSEWHERE IN MINNESOTA...


CITY           SKY/WX    TMP DP  RH WIND       PRES   REMARKS
MINNEAPOLIS    CLOUDY    35  31  85 N13       29.81F WCI  26
INTNL FALLS    FLURRIES  33  31  92 N3        29.85F
DULUTH         CLOUDY    34  30  85 N8        29.77F WCI  27
RED WING       CLOUDY    36  30  80 N3        29.79R
REDWOOD FALLS  CLOUDY    32  30  92 NW14G24   29.87F WCI  22
MANKATO        CLOUDY    34  30  86 N15       29.82S WCI  24
WORTHINGTON    CLOUDY    30 -17  12 NW20      29.86F WCI  18
FAIRMONT       CLOUDY    34  28  80 NW18G26   29.82F WCI  23
$$

...SOUTHWEST WISCONSIN...


CITY           SKY/WX    TMP DP  RH WIND       PRES   REMARKS
LA CROSSE      CLOUDY    35  31  85 N8        29.75R WCI  29
PRAIRIE DU CHI CLOUDY    35  33  94 NW5       29.73R FOG     WCI  31
BOSCOBEL       CLOUDY    36  33  89 NW5       29.72S WCI  32
LONE ROCK      CLOUDY    38  34  85 NW5       29.71R FOG     WCI  34
PLATTEVILLE    CLOUDY    34  33  98 CALM      29.71S VSB 1/2
FORT MC COY    DRIZZLE   33  33 100 NW6       29.73R WCI  28
CAMP DOUGLAS   CLOUDY    32  32 100 NW6       29.70R FOG     WCI  26
VIROQUA        CLOUDY    32  32 100 N7        29.70R WCI  26
WIS DELLS      NOT AVBL
$$

...ELSEWHERE IN WISCONSIN...


CITY           SKY/WX    TMP DP  RH WIND       PRES   REMARKS
MILWAUKEE      CLOUDY    36  32  85 CALM      29.69S
MADISON        FOG       35  34  96 NW6       29.68S VSB 3/4 WCI  30
GREEN BAY      FOG       36  35  96 NW3       29.69F VSB 1/4
EAU CLAIRE     CLOUDY    34  29  82 N9        29.75S WCI  27
BLACK RVR FLS  CLOUDY    34  34 100 N6        29.72R WCI  29
MEDFORD        CLOUDY    31  28  89 N9        29.70S WCI  23
WAUSAU         CLOUDY    33  32  96 N7        29.68S WCI  27
WIS RAPIDS     FOG       33  32  96 N6        29.70S VSB 1/2 WCI  28
MARSHFIELD     CLOUDY    34  31  88 N9        29.69R WCI  27
RICE LAKE      CLOUDY    33  31  92 NW7       29.77S WCI  27
$$

...NORTHEAST IOWA...


CITY           SKY/WX    TMP DP  RH WIND       PRES   REMARKS
DECORAH        CLOUDY    34  32  93 N12       29.73R WCI  25
MASON CITY     CLOUDY    33  31  92 N15       29.79S WCI  23
CHARLES CITY   CLOUDY    34  34 100 N9        29.77R WCI  26
OELWEIN        MIX PCPN  34  34 100 N12       29.75R WCI  25
$$

...ELSEWHERE IN IOWA...


CITY           SKY/WX    TMP DP  RH WIND       PRES   REMARKS
DES MOINES     LGT SNOW  34  32  92 N9        29.80R FOG     WCI  27
IOWA CITY      CLOUDY    35  34  96 NW7       29.74F FOG     WCI  29
FORT DODGE     CLOUDY    34  30  86 N10       29.82R WCI  26
$$

...NORTHERN ILLINOIS...


CITY           SKY/WX    TMP DP  RH WIND       PRES   REMARKS
CHICAGO-OHARE  CLOUDY    38  33  82 CALM      29.70R
CHICAGO-MIDWAY CLOUDY    42  34  73 CALM      29.71R
MOLINE         CLOUDY    37  33  85 NW7       29.71S WCI  32
ROCKFORD       CLOUDY    36  33  89 S3        29.72R
PEORIA         CLOUDY    37  32  82 CALM      29.71F
$$

NOTE: "FAIR" INDICATES FEW OR NO CLOUDS BELOW 12,000 FEET WITH NO
SIGNIFICANT WEATHER AND/OR OBSTRUCTIONS TO VISIBILITY. WIND
SPEEDS ARE IN MILES-PER-HOUR.



USA.gov is the U.S. government's official web portal to all federal, state and local government web resources and services.